When you browse on this site, cookies collect data to enhance your experience and personalize the content and advertising you see.
Visit our Privacy Policy to learn more. By continuing to use the site, you agree to this use of cookies and data.
  • In Czech Republic
  • List of Countries
  • For 7 days
  • Water Temperature
  • Satellite Maps
  • Weather Map
  • Weather Widgets
  • user-avatar
    Login

    Hourly Weather Mihalovka

    Today, 25 May, Saturday

    Time Temperature Precipitation Wind Pressure Humidity
    00:00 +15°C° 0 mm 0 mps 743 mmHg 89%
    01:00 +14°C° 0 mm 0 mps 743 mmHg 90%
    02:00 +15°C° 0 mm 1 mps 742 mmHg 91%
    03:00 +15°C° 0 mm 1 mps 742 mmHg 92%
    04:00 +15°C° 0 mm 1 mps 742 mmHg 93%
    05:00 +15°C° 0 mm 1 mps 742 mmHg 94%
    06:00 +16°C° 0 mm 2 mps 742 mmHg 90%
    07:00 +18°C° 0 mm 2 mps 742 mmHg 85%
    08:00 +19°C° 0 mm 2 mps 742 mmHg 81%
    09:00 +21°C° 0 mm 3 mps 742 mmHg 73%
    10:00 +22°C° 0 mm 3 mps 742 mmHg 65%
    11:00 +24°C° 0 mm 3 mps 742 mmHg 58%
    12:00 +24°C° 0.5 mm 3 mps 742 mmHg 59%
    13:00 +23°C° 0.5 mm 4 mps 742 mmHg 60%
    14:00 +23°C° 0.5 mm 4 mps 742 mmHg 62%
    15:00 +23°C° 0.3 mm 4 mps 742 mmHg 63%
    16:00 +22°C° 0.3 mm 4 mps 742 mmHg 64%
    17:00 +22°C° 0.3 mm 4 mps 741 mmHg 65%
    18:00 +20°C° 0 mm 3 mps 742 mmHg 69%
    19:00 +19°C° 0 mm 3 mps 742 mmHg 73%
    20:00 +17°C° 0 mm 2 mps 742 mmHg 78%
    21:00 +16°C° 0 mm 2 mps 742 mmHg 79%
    22:00 +15°C° 0 mm 2 mps 742 mmHg 81%
    23:00 +13°C° 0 mm 3 mps 742 mmHg 82%

    Tomorrow, 26 May, Sunday

    Time Temperature Precipitation Wind Pressure Humidity
    00:00 +13°C° 0 mm 3 mps 742 mmHg 85%
    01:00 +12°C° 0 mm 3 mps 743 mmHg 88%
    02:00 +12°C° 0 mm 3 mps 743 mmHg 91%
    03:00 +12°C° 0 mm 2 mps 743 mmHg 91%
    04:00 +12°C° 0 mm 2 mps 743 mmHg 90%
    05:00 +12°C° 0 mm 2 mps 744 mmHg 89%
    06:00 +12°C° 0 mm 3 mps 744 mmHg 81%
    07:00 +13°C° 0 mm 3 mps 744 mmHg 74%
    08:00 +16°C° 0 mm 3 mps 744 mmHg 66%
    09:00 +17°C° 0 mm 4 mps 744 mmHg 60%
    10:00 +18°C° 0 mm 4 mps 744 mmHg 55%
    11:00 +19°C° 0 mm 5 mps 744 mmHg 50%
    12:00 +19°C° 0 mm 5 mps 744 mmHg 50%
    13:00 +20°C° 0 mm 5 mps 744 mmHg 50%
    14:00 +20°C° 0 mm 5 mps 744 mmHg 50%
    15:00 +20°C° 0 mm 5 mps 743 mmHg 52%
    16:00 +20°C° 0 mm 5 mps 743 mmHg 55%
    17:00 +20°C° 0 mm 5 mps 743 mmHg 57%
    18:00 +18°C° 0 mm 4 mps 743 mmHg 63%
    19:00 +17°C° 0 mm 3 mps 743 mmHg 70%
    20:00 +15°C° 0 mm 2 mps 744 mmHg 76%
    21:00 +15°C° 0 mm 2 mps 744 mmHg 78%
    22:00 +14°C° 0 mm 2 mps 744 mmHg 80%
    23:00 +14°C° 0 mm 2 mps 744 mmHg 82%

    Day after tomorrow, 27 May, Monday

    Time Temperature Precipitation Wind Pressure Humidity
    00:00 +13°C° 0 mm 2 mps 745 mmHg 85%
    01:00 +12°C° 0 mm 2 mps 745 mmHg 88%
    02:00 +12°C° 0 mm 2 mps 745 mmHg 91%
    03:00 +12°C° 0 mm 2 mps 745 mmHg 90%
    04:00 +12°C° 0 mm 2 mps 745 mmHg 90%
    05:00 +11°C° 0 mm 3 mps 745 mmHg 90%
    06:00 +13°C° 0 mm 3 mps 745 mmHg 82%
    07:00 +15°C° 0 mm 4 mps 745 mmHg 74%
    08:00 +18°C° 0 mm 4 mps 746 mmHg 66%
    09:00 +19°C° 0 mm 5 mps 746 mmHg 61%
    10:00 +21°C° 0 mm 5 mps 746 mmHg 57%
    11:00 +22°C° 0 mm 5 mps 746 mmHg 53%
    12:00 +23°C° 0.1 mm 5 mps 746 mmHg 52%
    13:00 +23°C° 0.1 mm 5 mps 746 mmHg 52%
    14:00 +25°C° 0.1 mm 5 mps 745 mmHg 51%
    15:00 +25°C° 0 mm 5 mps 745 mmHg 52%
    16:00 +25°C° 0 mm 4 mps 745 mmHg 53%
    17:00 +25°C° 0 mm 4 mps 745 mmHg 54%
    18:00 +22°C° 0.3 mm 3 mps 745 mmHg 64%
    19:00 +20°C° 0.3 mm 3 mps 745 mmHg 75%
    20:00 +18°C° 0.3 mm 2 mps 745 mmHg 85%
    21:00 +18°C° 0 mm 2 mps 745 mmHg 88%
    22:00 +17°C° 0 mm 2 mps 745 mmHg 90%
    23:00 +16°C° 0 mm 3 mps 745 mmHg 93%

    28 May, Tuesday

    Time Temperature Precipitation Wind Pressure Humidity
    00:00 +16°C° 0.1 mm 3 mps 745 mmHg 94%
    01:00 +16°C° 0.1 mm 3 mps 745 mmHg 95%
    02:00 +16°C° 0.1 mm 3 mps 745 mmHg 96%
    03:00 +16°C° 0 mm 2 mps 745 mmHg 95%
    04:00 +17°C° 0 mm 2 mps 745 mmHg 95%
    05:00 +17°C° 0 mm 2 mps 745 mmHg 94%
    06:00 +18°C° 0.1 mm 2 mps 745 mmHg 91%
    07:00 +20°C° 0.1 mm 3 mps 745 mmHg 87%
    08:00 +21°C° 0.1 mm 3 mps 745 mmHg 83%
    09:00 +22°C° 0.7 mm 4 mps 745 mmHg 79%
    10:00 +23°C° 0.7 mm 4 mps 745 mmHg 75%
    11:00 +25°C° 0.7 mm 4 mps 745 mmHg 71%
    12:00 +25°C° 0.6 mm 4 mps 745 mmHg 73%
    13:00 +25°C° 0.6 mm 4 mps 744 mmHg 74%
    14:00 +25°C° 0.6 mm 4 mps 744 mmHg 75%
    15:00 +25°C° 1.1 mm 4 mps 744 mmHg 75%
    16:00 +25°C° 1.1 mm 4 mps 744 mmHg 75%
    17:00 +25°C° 1.1 mm 4 mps 744 mmHg 75%
    18:00 +23°C° 0.1 mm 4 mps 744 mmHg 77%
    19:00 +22°C° 0.1 mm 3 mps 744 mmHg 79%
    20:00 +20°C° 0.1 mm 3 mps 744 mmHg 80%
    21:00 +20°C° 0 mm 3 mps 744 mmHg 81%
    22:00 +19°C° 0 mm 4 mps 744 mmHg 82%
    23:00 +19°C° 0 mm 4 mps 744 mmHg 83%

    29 May, Wednesday

    Time Temperature Precipitation Wind Pressure Humidity
    00:00 +19°C° 0 mm 4 mps 744 mmHg 83%
    01:00 +18°C° 0 mm 4 mps 744 mmHg 84%
    02:00 +18°C° 0 mm 4 mps 744 mmHg 84%
    03:00 +17°C° 0 mm 4 mps 744 mmHg 84%
    04:00 +17°C° 0 mm 4 mps 743 mmHg 83%
    05:00 +16°C° 0 mm 5 mps 743 mmHg 82%
    06:00 +17°C° 0 mm 5 mps 743 mmHg 78%
    07:00 +19°C° 0 mm 5 mps 743 mmHg 74%
    08:00 +20°C° 0 mm 5 mps 744 mmHg 71%
    09:00 +22°C° 0 mm 5 mps 744 mmHg 68%
    10:00 +23°C° 0 mm 5 mps 744 mmHg 66%
    11:00 +26°C° 0 mm 5 mps 744 mmHg 64%
    12:00 +27°C° 0.2 mm 5 mps 744 mmHg 61%
    13:00 +27°C° 0.2 mm 5 mps 744 mmHg 58%
    14:00 +28°C° 0.2 mm 5 mps 744 mmHg 56%
    15:00 +27°C° 2.2 mm 4 mps 744 mmHg 63%
    16:00 +25°C° 2.2 mm 4 mps 745 mmHg 70%
    17:00 +23°C° 2.2 mm 4 mps 745 mmHg 77%
    18:00 +22°C° 1.6 mm 3 mps 745 mmHg 82%
    19:00 +20°C° 1.6 mm 2 mps 746 mmHg 86%
    20:00 +20°C° 1.6 mm 1 mps 746 mmHg 90%
    21:00 +18°C° 0.1 mm 2 mps 747 mmHg 92%
    22:00 +17°C° 0.1 mm 3 mps 747 mmHg 93%
    23:00 +17°C° 0.1 mm 4 mps 748 mmHg 95%

    30 May, Thursday

    Time Temperature Precipitation Wind Pressure Humidity
    00:00 +15°C° 0 mm 4 mps 748 mmHg 93%
    01:00 +14°C° 0 mm 4 mps 749 mmHg 92%
    02:00 +14°C° 0 mm 4 mps 749 mmHg 91%
    03:00 +13°C° 0 mm 4 mps 750 mmHg 90%
    04:00 +13°C° 0 mm 4 mps 750 mmHg 89%
    05:00 +13°C° 0 mm 4 mps 751 mmHg 88%
    06:00 +13°C° 0 mm 4 mps 751 mmHg 84%
    07:00 +14°C° 0 mm 4 mps 752 mmHg 81%
    08:00 +14°C° 0 mm 4 mps 752 mmHg 77%
    09:00 +17°C° 0 mm 4 mps 752 mmHg 70%
    10:00 +18°C° 0 mm 4 mps 752 mmHg 63%
    11:00 +19°C° 0 mm 4 mps 753 mmHg 57%
    12:00 +20°C° 0 mm 4 mps 753 mmHg 54%
    13:00 +20°C° 0 mm 4 mps 753 mmHg 51%
    14:00 +21°C° 0 mm 4 mps 753 mmHg 48%
    15:00 +21°C° 0 mm 3 mps 752 mmHg 48%
    16:00 +20°C° 0 mm 3 mps 752 mmHg 48%
    17:00 +20°C° 0 mm 3 mps 752 mmHg 48%
    18:00 +18°C° 0 mm 3 mps 752 mmHg 54%
    19:00 +16°C° 0 mm 2 mps 752 mmHg 59%
    20:00 +15°C° 0 mm 2 mps 752 mmHg 65%
    21:00 +14°C° 0 mm 2 mps 752 mmHg 66%
    22:00 +13°C° 0 mm 2 mps 752 mmHg 67%
    23:00 +12°C° 0 mm 1 mps 752 mmHg 68%
    Show more